{"data":{"norad_id":48597,"epoch":"2026-05-25T03:43:13.745280Z","epoch_age_seconds":61824,"freshness":"FRESH","line1":"1 48597U 21041AW  26145.15502020 -.00000590  00000+0 -72398-5 0  9993","line2":"2 48597  53.1590 143.8740 0001481  99.7223 260.3946 15.31700726278077","mean_motion":15.31700726,"eccentricity":0.0001481,"inclination_deg":53.159,"raan_deg":143.874,"arg_perigee_deg":99.7223,"mean_anomaly_deg":260.3946,"bstar":-7.2398e-6,"rev_number":27807,"period_min":94.013143400443,"perigee_km":469.7235126958,"apogee_km":471.75214942076,"semimajor_km":6848.8748310583,"source":"CELESTRAK","updated_at":"2026-05-25T13:38:16.751986Z"}}